Regional Weather Roundup
Issued by NWS

Home | Current Version | Previous Version | Text Only | Print | Product List | Glossary Off
Versions: 1 2 3 4 5 6 7 8 9 10 11 12 13 14 15 16 17 18 19 20 21 22 23 24 25 26 27 28 29 30 31 32 33 34 35 36 37 38 39 40 41 42 43 44 45 46 47 48 49 50

000
ASUS43 KLSX 200159
RWRMO

WEATHER SUMMARY FOR MISSOURI
NATIONAL WEATHER SERVICE SPRINGFIELD MO
900 PM CDT SAT APR 19 2014

NOTE: "FAIR" INDICATES FEW OR NO CLOUDS BELOW 12,000 FEET WITH NO
       SIGNIFICANT WEATHER AND/OR OBSTRUCTIONS TO VISIBILITY.
       CURRENT SKY AND/OR WEATHER CONDITIONS ARE NOT AVAILABLE FOR
       CHILLICOTHE AND FARMINGTON.

MOZ001>031-035>038-043-044-053-054-200300-
...NORTHERN AND WESTERN MISSOURI...

CITY           SKY/WX    TMP DP  RH WIND       PRES   REMARKS
KANSAS CTY INT PTCLDY    61  43  51 S9        30.08R
KANSAS C DTWN  MOCLDY    69  43  38 S7        30.07R
LEE`S SUMMIT   MOCLDY    67  44  43 S6        30.09R
ST JOSEPH      CLEAR     66  44  45 S9        30.06R
KIRKSVILLE     CLEAR     56  42  59 SE8       30.12S

$$
MOZ066>068-077>081-088>096-101>105-200300-
...SOUTHWEST MISSOURI...

CITY           SKY/WX    TMP DP  RH WIND       PRES   REMARKS
SPRINGFIELD    PTCLDY    60  45  57 SE7       30.12R
JOPLIN         PTCLDY    65  44  46 S7        30.11R

$$
MOZ032>034-039>042-045>050-055>058-069>072-200300-
...CENTRAL MISSOURI...

CITY           SKY/WX    TMP DP  RH WIND       PRES   REMARKS
COLUMBIA       PTCLDY    65  41  41 E7        30.13R
JEFFERSON CITY PTCLDY    66  40  38 SE5       30.11R
ROLLA          CLEAR     65  38  36 S6        30.12R
SEDALIA        MOCLDY    66  44  45 S6        30.12R
OSAGE BEACH    PTCLDY    70  37  30 S3        30.14R

$$
MOZ051-052-059>065-200300-
...EAST CENTRAL MISSOURI...

CITY           SKY/WX    TMP DP  RH WIND       PRES   REMARKS
ST LOUIS INTL  PTCLDY    67  42  40 E8        30.17R
SPIRIT OF STL  PTCLDY    65  40  39 E5        30.15R
ST CHARLES     PTCLDY    61  43  51 E8        30.16R

$$
MOZ072>076-082>087-097>100-106>115-200300-
...SOUTH CENTRAL AND SOUTHEAST MISSOURI...

CITY           SKY/WX    TMP DP  RH WIND       PRES   REMARKS
CAPE GIRARDEAU MOCLDY    63  49  60 E3        30.17R
FARMINGTON     CLEAR     61  43  51 E8        30.20R
POPLAR BLUFF   CLEAR     63  50  62 CALM      30.15S
WEST PLAINS    CLEAR     64  40  41 S5        30.17R

$$



USA.gov is the U.S. government's official web portal to all federal, state and local government web resources and services.